Location: Сочи
(43.6028°N, 39.7342°E)
Time: 14:11:35
(UTC+03:00)

Envisat - Visible Passes

Search period start: 20 March 2019 00:00
Search period end: 30 March 2019 00:00
Orbit: 764 x 766 km, 98.2° (Epoch: 19 March)

Date Brightness Start Highest point End Pass type
(mag) Time Alt. Az. Time Alt. Az. Time Alt. Az.
20 Mar 4.5 19:33:07 10° SSW 19:37:52 40° W 19:42:40 10° NNW visible
21 Mar 3.1 18:55:57 10° SSE 19:01:02 87° WSW 19:06:09 10° NNW visible
21 Mar 6.3 20:40:05 10° W 20:40:47 10° W 20:41:30 10° WNW visible
22 Mar 5.4 19:59:35 10° SW 20:03:36 23° W 20:07:38 10° NW visible
23 Mar 4.0 19:21:42 10° S 19:26:36 50° W 19:31:34 10° NNW visible
24 Mar 6.0 20:26:58 10° WSW 20:29:25 13° W 20:31:52 10° WNW visible
25 Mar 5.1 19:47:54 10° SSW 19:52:17 29° W 19:56:42 10° NW visible
26 Mar 3.6 19:10:20 10° S 19:15:22 64° W 19:20:26 10° NNW visible
27 Mar 5.8 20:14:48 10° SW 20:18:04 17° W 20:21:21 10° NW visible
28 Mar 4.7 19:36:20 10° SSW 19:41:00 36° W 19:45:42 10° NNW visible
